Flag Weather past 2 weeks in Lord Howe Island, Lord Howe Island, Australia

Now
71 °F

Scattered clouds.


Feels Like: 76 °F
Forecast: 67 / 69 °F
Wind: 6 mph from South

Location: Lord Howe Island

Current Time: Nov 28, 2014 at 5:25:19 PM

Latest Report: Nov 28, 2014 at 3:00 PM


Visibility: 13 mi

Pressure: 30.14 "Hg

Humidity: 56%

Dew point: 54 °F

Location of Lord Howe IslandLocation

Historic Weather in Lord Howe Island — Graph

°F

Lord Howe Island temperature yesterday

Maximum temperature yesterday: 71 °F (at 9:00 AM)
Minimum temperature yesterday: 67 °F (at 8:00 PM)
Average temperature yesterday: 69 °F

Past Weeks' High & Low Weather Summary

 TemperatureHumidityPressure
High79 °F (Nov 25, 11:00 AM)94% (Nov 27, 8:00 AM)30.17 "Hg (Nov 27, 8:00 AM)
Low59 °F (Nov 19, 5:00 AM)48% (Nov 28, 12:00 PM)29.64 "Hg (Nov 16, 6:00 PM)
Average71 °F74%30.04 "Hg
* Reported Nov 13 3:00 PM — Nov 28 3:00 PM, Lord Howe Island, Weather by CustomWeather, © 2014

Note: Actual official high and low records may vary slightly from our data, if they occured in-between our weather recording intervals... More about our weather records

Advertising

Lord Howe Island weather history for previous 24 hours

 ConditionsComfort  
Time TempWeatherWind HumidityBarometerVisibility
3:00 PM
Nov 28
71 °FScattered clouds.6 mph56%30.14 "Hg12 mi
2:00 PM72 °FMild.6 mph52%30.14 "HgN/A
12:00 PM71 °FPartly sunny.8 mph48%30.15 "HgN/A
11:00 AM72 °FMild.7 mph49%30.15 "HgN/A
9:00 AM69 °FScattered clouds.6 mph49%30.14 "Hg16 mi
8:00 AM67 °FMild.9 mph53%30.14 "HgN/A
6:00 AM66 °FScattered clouds.6 mph65%30.11 "Hg12 mi
5:00 AM66 °FMild.6 mph66%30.10 "HgN/A
3:00 AM67 °FOvercast.10 mph65%30.08 "HgN/A
2:00 AM67 °FMild.5 mph67%30.08 "HgN/A
12:00 AM67 °FPassing clouds.5 mph66%30.09 "HgN/A
11:00 PM
Nov 27
68 °FMild.8 mph65%30.11 "HgN/A
9:00 PM67 °FMild.9 mph73%30.09 "HgN/A
8:00 PM67 °FMild.12 mph75%30.08 "HgN/A
6:00 PM69 °FOvercast.9 mph84%30.06 "HgN/A
5:00 PM68 °FMild.9 mph89%30.03 "HgN/A
Weather by CustomWeather, © 2014

See weather overviewHow to use our weather pages